Location: site
(53.0000°N, 23.0500°E)
Time: 19:07:26
(UTC+01:00)

SAOCOM 1-A - Pass Details

Date: 10 December 2020
Orbit: 621 x 623 km, 97.9° (Epoch: 24 January)

Event Time Altitude Azimuth Distance (km) Brightness Sun altitude
Exits shadow 18:06:19 64° 188° (S) 694 ? -24.9°
Drops below altitude 10° 18:10:00 10° 195° (SSW) 1,990 ? -25.4°
Sets 18:12:10 0° 195° (SSW) 2,892 ? -25.8°
